Погода в Абыем

Россия / Республика Саха (Якутия)     68°23′32″N   145°04′33″E
темп.,
°C
ветер,
м/с
пор.,
м/с
влажн.,
%
обл.,
%
осадки,
мм/ч
давл.,
гПа
погр.,
м
6 августа, пт
пт623:00+5св3590100 0.3 1022396
02:00+5св2491100 0.0 1023250
05:00+4св2391100 0.0 1023207
08:00+5всв2285100 0.0 1024323
11:00+8всв227686 0.0 1025646
14:00+10в226399 0.0 10241057
17:00+13юв235448 0.0 10241178
20:00+14юв23515 0.0 10241123
7 августа, сб
сб723:00+7юз11765 0.0 102510
02:00+8в33755 0.0 102611
05:00+7вюв33825 0.0 102718
08:00+12вюв23625 0.0 1028302
11:00+16ююв12499 0.0 1028831
14:00+19юв114264 0.0 10271096
17:00+21вюв223974 0.0 10271231
20:00+21вюв234443 0.0 1026543
8 августа, вс
вс823:00+14вюв486656 0.0 1027115
02:00+11в467649 0.0 102782
05:00+10в348269 0.0 102765
08:00+14вюв34655 0.0 1027305
11:00+19юв444918 0.0 1026824
14:00+22юв33395 0.0 10251180
17:00+23вюв542826 0.0 10231208
20:00+22в46285 0.0 1023305
9 августа, пн
пн923:00+15вюв59455 0.0 1022127
02:00+13юв33525 0.0 102237
05:00+12юв345613 0.0 102253
08:00+16юв354320 0.0 1021274
11:00+21юв443246 0.0 1020726
14:00+24ююв442428 0.0 10181062
17:00+26ююв332134 0.0 10171221
20:00+24юв3329100 0.0 101628
10 августа, вт
вт1023:00+19юв3435100 0.0 101628
02:00+17ю3343100 0.0 101620
05:00+15ююв235180 0.0 101613
08:00+20ююв234147 0.0 1016159
11:00+25ю113150 0.0 1015521
14:00+28юз112697 0.0 1014997
17:00+29зсз12255 0.0 10131681
20:00+28ююв01375 0.0 101311